﻿測定場所 (Monitoring sites),日付 (Measurement date),時間 (Measurement time),線量率 最大値 (max) μGy/h,線量率 最小値 (min) μGy/h,線量率 平均値 (average) μGy/h,
新宿 (Shinjuku),2012-10-28,23:01～24:00,0.0569,0.0482,0.0517,
新宿 (Shinjuku),2012-10-28,22:01～23:00,0.0525,0.0459,0.0488,
新宿 (Shinjuku),2012-10-28,21:01～22:00,0.0549,0.0476,0.0505,
新宿 (Shinjuku),2012-10-28,20:01～21:00,0.0590,0.0502,0.0552,
新宿 (Shinjuku),2012-10-28,19:01～20:00,0.0604,0.0523,0.0560,
新宿 (Shinjuku),2012-10-28,18:01～19:00,0.0562,0.0501,0.0535,
新宿 (Shinjuku),2012-10-28,17:01～18:00,0.0553,0.0471,0.0511,
新宿 (Shinjuku),2012-10-28,16:01～17:00,0.0500,0.0443,0.0469,
新宿 (Shinjuku),2012-10-28,15:01～16:00,0.0512,0.0432,0.0468,
新宿 (Shinjuku),2012-10-28,14:01～15:00,0.0501,0.0421,0.0469,
新宿 (Shinjuku),2012-10-28,13:01～14:00,0.0502,0.0440,0.0475,
新宿 (Shinjuku),2012-10-28,12:01～13:00,0.0527,0.0468,0.0495,
新宿 (Shinjuku),2012-10-28,11:01～12:00,0.0549,0.0471,0.0517,
新宿 (Shinjuku),2012-10-28,10:01～11:00,0.0547,0.0449,0.0496,
新宿 (Shinjuku),2012-10-28,09:01～10:00,0.0506,0.0446,0.0469,
新宿 (Shinjuku),2012-10-28,08:01～09:00,0.0506,0.0441,0.0467,
新宿 (Shinjuku),2012-10-28,07:01～08:00,0.0501,0.0434,0.0469,
新宿 (Shinjuku),2012-10-28,06:01～07:00,0.0491,0.0432,0.0467,
新宿 (Shinjuku),2012-10-28,05:01～06:00,0.0502,0.0435,0.0469,
新宿 (Shinjuku),2012-10-28,04:01～05:00,0.0493,0.0422,0.0465,
新宿 (Shinjuku),2012-10-28,03:01～04:00,0.0525,0.0444,0.0470,
新宿 (Shinjuku),2012-10-28,02:01～03:00,0.0504,0.0440,0.0469,
新宿 (Shinjuku),2012-10-28,01:01～02:00,0.0496,0.0420,0.0466,
新宿 (Shinjuku),2012-10-28,00:01～01:00,0.0491,0.0414,0.0466,
新宿 (Shinjuku),2012-10-27,23:01～24:00,0.0507,0.0438,0.0471,
新宿 (Shinjuku),2012-10-27,22:01～23:00,0.0493,0.0440,0.0470,
新宿 (Shinjuku),2012-10-27,21:01～22:00,0.0511,0.0422,0.0467,
新宿 (Shinjuku),2012-10-27,20:01～21:00,0.0506,0.0432,0.0465,
新宿 (Shinjuku),2012-10-27,19:01～20:00,0.0502,0.0434,0.0468,
新宿 (Shinjuku),2012-10-27,18:01～19:00,0.0493,0.0432,0.0465,
新宿 (Shinjuku),2012-10-27,17:01～18:00,0.0490,0.0435,0.0462,
新宿 (Shinjuku),2012-10-27,16:01～17:00,0.0503,0.0427,0.0466,
新宿 (Shinjuku),2012-10-27,15:01～16:00,0.0507,0.0431,0.0464,
新宿 (Shinjuku),2012-10-27,14:01～15:00,0.0500,0.0429,0.0462,
新宿 (Shinjuku),2012-10-27,13:01～14:00,0.0492,0.0437,0.0464,
新宿 (Shinjuku),2012-10-27,12:01～13:00,0.0505,0.0440,0.0471,
新宿 (Shinjuku),2012-10-27,11:01～12:00,0.0513,0.0426,0.0471,
新宿 (Shinjuku),2012-10-27,10:01～11:00,0.0507,0.0441,0.0473,
新宿 (Shinjuku),2012-10-27,09:01～10:00,0.0508,0.0446,0.0476,
新宿 (Shinjuku),2012-10-27,08:01～09:00,0.0527,0.0437,0.0474,
新宿 (Shinjuku),2012-10-27,07:01～08:00,0.0500,0.0438,0.0473,
新宿 (Shinjuku),2012-10-27,06:01～07:00,0.0499,0.0443,0.0471,
新宿 (Shinjuku),2012-10-27,05:01～06:00,0.0503,0.0437,0.0473,
新宿 (Shinjuku),2012-10-27,04:01～05:00,0.0518,0.0443,0.0475,
新宿 (Shinjuku),2012-10-27,03:01～04:00,0.0522,0.0439,0.0470,
新宿 (Shinjuku),2012-10-27,02:01～03:00,0.0501,0.0430,0.0465,
新宿 (Shinjuku),2012-10-27,01:01～02:00,0.0500,0.0428,0.0464,
新宿 (Shinjuku),2012-10-27,00:01～01:00,0.0512,0.0439,0.0471,
新宿 (Shinjuku),2012-10-26,23:01～24:00,0.0499,0.0424,0.0467,
新宿 (Shinjuku),2012-10-26,22:01～23:00,0.0494,0.0441,0.0469,
新宿 (Shinjuku),2012-10-26,21:01～22:00,0.0499,0.0428,0.0464,
新宿 (Shinjuku),2012-10-26,20:01～21:00,0.0493,0.0434,0.0467,
新宿 (Shinjuku),2012-10-26,19:01～20:00,0.0497,0.0437,0.0466,
新宿 (Shinjuku),2012-10-26,18:01～19:00,0.0508,0.0437,0.0465,
新宿 (Shinjuku),2012-10-26,17:01～18:00,0.0508,0.0429,0.0464,
新宿 (Shinjuku),2012-10-26,16:01～17:00,0.0494,0.0421,0.0460,
新宿 (Shinjuku),2012-10-26,15:01～16:00,0.0497,0.0439,0.0464,
新宿 (Shinjuku),2012-10-26,14:01～15:00,0.0492,0.0426,0.0466,
新宿 (Shinjuku),2012-10-26,13:01～14:00,0.0504,0.0435,0.0469,
新宿 (Shinjuku),2012-10-26,12:01～13:00,0.0498,0.0434,0.0469,
新宿 (Shinjuku),2012-10-26,11:01～12:00,0.0500,0.0424,0.0469,
新宿 (Shinjuku),2012-10-26,10:01～11:00,0.0522,0.0444,0.0476,
新宿 (Shinjuku),2012-10-26,09:01～10:00,0.0501,0.0448,0.0474,
新宿 (Shinjuku),2012-10-26,08:01～09:00,0.0512,0.0450,0.0477,
新宿 (Shinjuku),2012-10-26,07:01～08:00,0.0508,0.0440,0.0475,
新宿 (Shinjuku),2012-10-26,06:01～07:00,0.0504,0.0433,0.0475,
新宿 (Shinjuku),2012-10-26,05:01～06:00,0.0502,0.0437,0.0473,
新宿 (Shinjuku),2012-10-26,04:01～05:00,0.0526,0.0434,0.0476,
新宿 (Shinjuku),2012-10-26,03:01～04:00,0.0519,0.0442,0.0479,
新宿 (Shinjuku),2012-10-26,02:01～03:00,0.0510,0.0439,0.0470,
新宿 (Shinjuku),2012-10-26,01:01～02:00,0.0506,0.0440,0.0473,
新宿 (Shinjuku),2012-10-26,00:01～01:00,0.0503,0.0436,0.0473,
新宿 (Shinjuku),2012-10-25,23:01～24:00,0.0499,0.0446,0.0471,
新宿 (Shinjuku),2012-10-25,22:01～23:00,0.0490,0.0438,0.0465,
新宿 (Shinjuku),2012-10-25,21:01～22:00,0.0505,0.0432,0.0461,
新宿 (Shinjuku),2012-10-25,20:01～21:00,0.0502,0.0431,0.0467,
新宿 (Shinjuku),2012-10-25,19:01～20:00,0.0498,0.0434,0.0465,
新宿 (Shinjuku),2012-10-25,18:01～19:00,0.0499,0.0429,0.0465,
新宿 (Shinjuku),2012-10-25,17:01～18:00,0.0506,0.0430,0.0461,
新宿 (Shinjuku),2012-10-25,16:01～17:00,0.0501,0.0441,0.0466,
新宿 (Shinjuku),2012-10-25,15:01～16:00,0.0523,0.0440,0.0470,
新宿 (Shinjuku),2012-10-25,14:01～15:00,0.0510,0.0434,0.0467,
新宿 (Shinjuku),2012-10-25,13:01～14:00,0.0512,0.0444,0.0473,
新宿 (Shinjuku),2012-10-25,12:01～13:00,0.0507,0.0442,0.0474,
新宿 (Shinjuku),2012-10-25,11:01～12:00,0.0499,0.0451,0.0477,
新宿 (Shinjuku),2012-10-25,10:01～11:00,0.0490,0.0435,0.0472,
新宿 (Shinjuku),2012-10-25,09:01～10:00,0.0508,0.0444,0.0478,
新宿 (Shinjuku),2012-10-25,08:01～09:00,0.0505,0.0440,0.0475,
新宿 (Shinjuku),2012-10-25,07:01～08:00,0.0505,0.0438,0.0472,
新宿 (Shinjuku),2012-10-25,06:01～07:00,0.0507,0.0428,0.0467,
新宿 (Shinjuku),2012-10-25,05:01～06:00,0.0495,0.0438,0.0465,
新宿 (Shinjuku),2012-10-25,04:01～05:00,0.0500,0.0434,0.0466,
新宿 (Shinjuku),2012-10-25,03:01～04:00,0.0492,0.0434,0.0464,
新宿 (Shinjuku),2012-10-25,02:01～03:00,0.0495,0.0435,0.0466,
新宿 (Shinjuku),2012-10-25,01:01～02:00,0.0503,0.0422,0.0466,
新宿 (Shinjuku),2012-10-25,00:01～01:00,0.0505,0.0435,0.0466,
新宿 (Shinjuku),2012-10-24,23:01～24:00,0.0500,0.0425,0.0468,
新宿 (Shinjuku),2012-10-24,22:01～23:00,0.0500,0.0426,0.0465,
新宿 (Shinjuku),2012-10-24,21:01～22:00,0.0502,0.0433,0.0466,
新宿 (Shinjuku),2012-10-24,20:01～21:00,0.0511,0.0432,0.0466,
新宿 (Shinjuku),2012-10-24,19:01～20:00,0.0505,0.0427,0.0464,
新宿 (Shinjuku),2012-10-24,18:01～19:00,0.0499,0.0430,0.0465,
新宿 (Shinjuku),2012-10-24,17:01～18:00,0.0483,0.0428,0.0459,
新宿 (Shinjuku),2012-10-24,16:01～17:00,0.0494,0.0429,0.0464,
新宿 (Shinjuku),2012-10-24,15:01～16:00,0.0500,0.0430,0.0463,
新宿 (Shinjuku),2012-10-24,14:01～15:00,0.0508,0.0419,0.0466,
新宿 (Shinjuku),2012-10-24,13:01～14:00,0.0499,0.0427,0.0468,
新宿 (Shinjuku),2012-10-24,12:01～13:00,0.0497,0.0435,0.0469,
新宿 (Shinjuku),2012-10-24,11:01～12:00,0.0497,0.0429,0.0463,
新宿 (Shinjuku),2012-10-24,10:01～11:00,0.0488,0.0435,0.0466,
新宿 (Shinjuku),2012-10-24,09:01～10:00,0.0502,0.0437,0.0466,
新宿 (Shinjuku),2012-10-24,08:01～09:00,0.0507,0.0411,0.0460,
新宿 (Shinjuku),2012-10-24,07:01～08:00,0.0494,0.0433,0.0462,
新宿 (Shinjuku),2012-10-24,06:01～07:00,0.0495,0.0429,0.0464,
新宿 (Shinjuku),2012-10-24,05:01～06:00,0.0501,0.0426,0.0460,
新宿 (Shinjuku),2012-10-24,04:01～05:00,0.0486,0.0437,0.0459,
新宿 (Shinjuku),2012-10-24,03:01～04:00,0.0491,0.0433,0.0462,
新宿 (Shinjuku),2012-10-24,02:01～03:00,0.0495,0.0411,0.0459,
新宿 (Shinjuku),2012-10-24,01:01～02:00,0.0504,0.0435,0.0469,
新宿 (Shinjuku),2012-10-24,00:01～01:00,0.0516,0.0434,0.0468,
新宿 (Shinjuku),2012-10-23,23:01～24:00,0.0501,0.0435,0.0473,
新宿 (Shinjuku),2012-10-23,22:01～23:00,0.0541,0.0459,0.0501,
新宿 (Shinjuku),2012-10-23,21:01～22:00,0.0637,0.0496,0.0569,
新宿 (Shinjuku),2012-10-23,20:01～21:00,0.0691,0.0571,0.0641,
新宿 (Shinjuku),2012-10-23,19:01～20:00,0.0614,0.0464,0.0517,
新宿 (Shinjuku),2012-10-23,18:01～19:00,0.0551,0.0448,0.0509,
新宿 (Shinjuku),2012-10-23,17:01～18:00,0.0528,0.0450,0.0480,
新宿 (Shinjuku),2012-10-23,16:01～17:00,0.0486,0.0438,0.0467,
新宿 (Shinjuku),2012-10-23,15:01～16:00,0.0518,0.0434,0.0469,
新宿 (Shinjuku),2012-10-23,14:01～15:00,0.0499,0.0445,0.0477,
新宿 (Shinjuku),2012-10-23,13:01～14:00,0.0511,0.0434,0.0478,
新宿 (Shinjuku),2012-10-23,12:01～13:00,0.0535,0.0460,0.0496,
新宿 (Shinjuku),2012-10-23,11:01～12:00,0.0522,0.0450,0.0482,
新宿 (Shinjuku),2012-10-23,10:01～11:00,0.0515,0.0453,0.0483,
新宿 (Shinjuku),2012-10-23,09:01～10:00,0.0506,0.0421,0.0468,
新宿 (Shinjuku),2012-10-23,08:01～09:00,0.0495,0.0430,0.0464,
新宿 (Shinjuku),2012-10-23,07:01～08:00,0.0509,0.0427,0.0466,
新宿 (Shinjuku),2012-10-23,06:01～07:00,0.0491,0.0427,0.0460,
新宿 (Shinjuku),2012-10-23,05:01～06:00,0.0500,0.0424,0.0463,
新宿 (Shinjuku),2012-10-23,04:01～05:00,0.0504,0.0421,0.0466,
新宿 (Shinjuku),2012-10-23,03:01～04:00,0.0506,0.0428,0.0465,
新宿 (Shinjuku),2012-10-23,02:01～03:00,0.0489,0.0430,0.0464,
新宿 (Shinjuku),2012-10-23,01:01～02:00,0.0502,0.0429,0.0464,
新宿 (Shinjuku),2012-10-23,00:01～01:00,0.0487,0.0420,0.0464,
新宿 (Shinjuku),2012-10-22,23:01～24:00,0.0498,0.0425,0.0466,
新宿 (Shinjuku),2012-10-22,22:01～23:00,0.0498,0.0429,0.0469,
新宿 (Shinjuku),2012-10-22,21:01～22:00,0.0494,0.0421,0.0465,
新宿 (Shinjuku),2012-10-22,20:01～21:00,0.0509,0.0436,0.0463,
新宿 (Shinjuku),2012-10-22,19:01～20:00,0.0490,0.0428,0.0466,
新宿 (Shinjuku),2012-10-22,18:01～19:00,0.0500,0.0436,0.0467,
新宿 (Shinjuku),2012-10-22,17:01～18:00,0.0495,0.0440,0.0465,
新宿 (Shinjuku),2012-10-22,16:01～17:00,0.0505,0.0431,0.0467,
新宿 (Shinjuku),2012-10-22,15:01～16:00,0.0499,0.0435,0.0468,
新宿 (Shinjuku),2012-10-22,14:01～15:00,0.0510,0.0430,0.0474,
新宿 (Shinjuku),2012-10-22,13:01～14:00,0.0518,0.0428,0.0475,
新宿 (Shinjuku),2012-10-22,12:01～13:00,0.0510,0.0450,0.0479,
新宿 (Shinjuku),2012-10-22,11:01～12:00,0.0500,0.0441,0.0474,
新宿 (Shinjuku),2012-10-22,10:01～11:00,0.0501,0.0441,0.0475,
新宿 (Shinjuku),2012-10-22,09:01～10:00,0.0506,0.0448,0.0478,
新宿 (Shinjuku),2012-10-22,08:01～09:00,0.0514,0.0447,0.0478,
新宿 (Shinjuku),2012-10-22,07:01～08:00,0.0522,0.0444,0.0476,
新宿 (Shinjuku),2012-10-22,06:01～07:00,0.0503,0.0430,0.0471,
新宿 (Shinjuku),2012-10-22,05:01～06:00,0.0498,0.0450,0.0473,
新宿 (Shinjuku),2012-10-22,04:01～05:00,0.0510,0.0446,0.0477,
新宿 (Shinjuku),2012-10-22,03:01～04:00,0.0506,0.0444,0.0473,
新宿 (Shinjuku),2012-10-22,02:01～03:00,0.0506,0.0440,0.0472,
新宿 (Shinjuku),2012-10-22,01:01～02:00,0.0530,0.0441,0.0476,
新宿 (Shinjuku),2012-10-22,00:01～01:00,0.0507,0.0439,0.0471,
